Location: Saint John
(45.2733°N, 66.0633°W)
Time: 17:43:42
(UTC-04:00)

BlueWalker 3 - Pass Details

Date: 29 November 2022
Orbit: 499 x 517 km, 53.2° (Epoch: 04 February)

Event Time Altitude Azimuth Distance (km) Brightness Sun altitude
Rises 17:40:09 0° 261° (W) 2,626 7.5 -9.7°
Reaches altitude 10° 17:42:28 10° 270° (W) 1,738 5.9 -10.1°
Maximum altitude 17:46:10 38° 340° (NNW) 795 2.9 -10.7°
Enters shadow 17:49:11 14° 45° (NE) 1,489 3.8 -11.2°
